Stündliche Wetter Abrosimovo

Heute, 23 Juni, Mittwoch

Zeit Temperatur Niederschläge Wind Luftdruck Luftfeuchtigkeit
00:00 +23°C° 0 mm 1 m/S 758 mmHg 79%
01:00 +22°C° 0 mm 1 m/S 758 mmHg 80%
02:00 +22°C° 0 mm 1 m/S 758 mmHg 81%
03:00 +21°C° 0 mm 1 m/S 758 mmHg 81%
04:00 +23°C° 0 mm 1 m/S 758 mmHg 77%
05:00 +24°C° 0 mm 1 m/S 758 mmHg 73%
06:00 +25°C° 0 mm 2 m/S 758 mmHg 70%
07:00 +27°C° 0 mm 2 m/S 758 mmHg 63%
08:00 +29°C° 0 mm 2 m/S 758 mmHg 57%
09:00 +30°C° 0 mm 2 m/S 757 mmHg 51%
10:00 +32°C° 0 mm 2 m/S 757 mmHg 46%
11:00 +34°C° 0 mm 2 m/S 757 mmHg 42%
12:00 +35°C° 0 mm 2 m/S 757 mmHg 37%
13:00 +35°C° 0 mm 2 m/S 757 mmHg 39%
14:00 +34°C° 0 mm 2 m/S 757 mmHg 41%
15:00 +34°C° 0 mm 2 m/S 757 mmHg 42%
16:00 +34°C° 0 mm 2 m/S 757 mmHg 45%
17:00 +32°C° 0 mm 1 m/S 756 mmHg 48%
18:00 +32°C° 0 mm 1 m/S 756 mmHg 51%
19:00 +30°C° 0 mm 1 m/S 756 mmHg 55%
20:00 +28°C° 0 mm 1 m/S 756 mmHg 60%
21:00 +26°C° 0 mm 1 m/S 757 mmHg 65%
22:00 +25°C° 0.2 mm 1 m/S 757 mmHg 70%
23:00 +24°C° 0.2 mm 1 m/S 757 mmHg 76%

Morgen, 24 Juni, Donnerstag

Zeit Temperatur Niederschläge Wind Luftdruck Luftfeuchtigkeit
00:00 +23°C° 0.2 mm 1 m/S 757 mmHg 81%
01:00 +23°C° 0 mm 1 m/S 757 mmHg 81%
02:00 +22°C° 0 mm 1 m/S 757 mmHg 81%
03:00 +22°C° 0 mm 1 m/S 757 mmHg 80%
04:00 +23°C° 0 mm 1 m/S 757 mmHg 78%
05:00 +24°C° 0 mm 1 m/S 757 mmHg 76%
06:00 +25°C° 0 mm 1 m/S 757 mmHg 74%
07:00 +27°C° 0 mm 1 m/S 757 mmHg 66%
08:00 +29°C° 0 mm 1 m/S 757 mmHg 57%
09:00 +31°C° 0 mm 1 m/S 757 mmHg 49%
10:00 +33°C° 0 mm 1 m/S 757 mmHg 44%
11:00 +35°C° 0 mm 2 m/S 757 mmHg 40%
12:00 +36°C° 0 mm 2 m/S 756 mmHg 35%
13:00 +36°C° 0 mm 2 m/S 756 mmHg 35%
14:00 +36°C° 0 mm 2 m/S 756 mmHg 35%
15:00 +36°C° 0 mm 3 m/S 756 mmHg 36%
16:00 +35°C° 0 mm 2 m/S 755 mmHg 41%
17:00 +35°C° 0 mm 2 m/S 755 mmHg 46%
18:00 +34°C° 0 mm 2 m/S 754 mmHg 52%
19:00 +31°C° 0 mm 2 m/S 754 mmHg 57%
20:00 +29°C° 0 mm 2 m/S 754 mmHg 63%
21:00 +27°C° 0 mm 2 m/S 754 mmHg 69%
22:00 +26°C° 0 mm 2 m/S 755 mmHg 72%
23:00 +25°C° 0 mm 1 m/S 755 mmHg 75%

übermorgen, 25 Juni, Freitag

Zeit Temperatur Niederschläge Wind Luftdruck Luftfeuchtigkeit
00:00 +24°C° 0 mm 1 m/S 755 mmHg 78%
01:00 +24°C° 0 mm 1 m/S 755 mmHg 79%
02:00 +23°C° 0 mm 1 m/S 755 mmHg 80%
03:00 +23°C° 0 mm 1 m/S 755 mmHg 81%
04:00 +24°C° 0 mm 1 m/S 755 mmHg 78%
05:00 +25°C° 0 mm 1 m/S 755 mmHg 75%
06:00 +26°C° 0 mm 2 m/S 755 mmHg 72%
07:00 +28°C° 0 mm 2 m/S 755 mmHg 64%
08:00 +30°C° 0 mm 2 m/S 754 mmHg 57%
09:00 +32°C° 0 mm 2 m/S 754 mmHg 49%
10:00 +35°C° 0 mm 2 m/S 754 mmHg 44%
11:00 +36°C° 0 mm 3 m/S 754 mmHg 39%
12:00 +37°C° 0 mm 3 m/S 754 mmHg 33%
13:00 +36°C° 0.1 mm 3 m/S 754 mmHg 35%
14:00 +36°C° 0.1 mm 3 m/S 753 mmHg 37%
15:00 +35°C° 0.1 mm 3 m/S 753 mmHg 38%
16:00 +31°C° 0.6 mm 3 m/S 753 mmHg 48%
17:00 +29°C° 0.6 mm 3 m/S 753 mmHg 59%
18:00 +26°C° 0.6 mm 3 m/S 753 mmHg 69%
19:00 +25°C° 0 mm 3 m/S 754 mmHg 71%
20:00 +23°C° 0 mm 4 m/S 754 mmHg 72%
21:00 +22°C° 0 mm 4 m/S 754 mmHg 74%
22:00 +21°C° 0 mm 3 m/S 753 mmHg 78%
23:00 +21°C° 0 mm 2 m/S 753 mmHg 82%

26 Juni, Samstag

Zeit Temperatur Niederschläge Wind Luftdruck Luftfeuchtigkeit
00:00 +20°C° 0 mm 2 m/S 753 mmHg 86%
01:00 +20°C° 0 mm 2 m/S 753 mmHg 87%
02:00 +20°C° 0 mm 2 m/S 753 mmHg 88%
03:00 +20°C° 0 mm 2 m/S 753 mmHg 90%
04:00 +23°C° 0 mm 2 m/S 753 mmHg 85%
05:00 +24°C° 0 mm 1 m/S 753 mmHg 80%
06:00 +25°C° 0 mm 1 m/S 753 mmHg 75%
07:00 +27°C° 0.1 mm 2 m/S 753 mmHg 68%
08:00 +29°C° 0.1 mm 2 m/S 753 mmHg 60%
09:00 +30°C° 0.1 mm 2 m/S 753 mmHg 52%
10:00 +32°C° 0 mm 2 m/S 753 mmHg 48%
11:00 +34°C° 0 mm 2 m/S 753 mmHg 43%
12:00 +35°C° 0 mm 2 m/S 752 mmHg 38%
13:00 +36°C° 0 mm 2 m/S 752 mmHg 36%
14:00 +36°C° 0 mm 2 m/S 752 mmHg 35%
15:00 +37°C° 0 mm 2 m/S 752 mmHg 33%
16:00 +35°C° 0 mm 2 m/S 752 mmHg 39%
17:00 +34°C° 0 mm 2 m/S 751 mmHg 45%
18:00 +32°C° 0 mm 2 m/S 751 mmHg 51%
19:00 +30°C° 0 mm 2 m/S 751 mmHg 59%
20:00 +28°C° 0 mm 2 m/S 752 mmHg 67%
21:00 +26°C° 0 mm 2 m/S 752 mmHg 75%
22:00 +25°C° 0.1 mm 1 m/S 752 mmHg 80%
23:00 +24°C° 0.1 mm 1 m/S 752 mmHg 85%

27 Juni, Sonntag

Zeit Temperatur Niederschläge Wind Luftdruck Luftfeuchtigkeit
00:00 +23°C° 0.1 mm 1 m/S 752 mmHg 91%
01:00 +22°C° 0.1 mm 1 m/S 752 mmHg 92%
02:00 +22°C° 0.1 mm 1 m/S 752 mmHg 93%
03:00 +21°C° 0.1 mm 2 m/S 752 mmHg 94%
04:00 +23°C° 0 mm 1 m/S 752 mmHg 89%
05:00 +24°C° 0 mm 1 m/S 752 mmHg 85%
06:00 +25°C° 0 mm 1 m/S 752 mmHg 81%
07:00 +27°C° 0 mm 1 m/S 752 mmHg 73%
08:00 +29°C° 0 mm 1 m/S 752 mmHg 65%
09:00 +31°C° 0 mm 1 m/S 753 mmHg 56%
10:00 +32°C° 0 mm 1 m/S 752 mmHg 51%
11:00 +34°C° 0 mm 2 m/S 752 mmHg 47%
12:00 +35°C° 0 mm 2 m/S 752 mmHg 42%
13:00 +34°C° 0 mm 2 m/S 752 mmHg 44%
14:00 +34°C° 0 mm 2 m/S 752 mmHg 46%
15:00 +32°C° 0 mm 2 m/S 752 mmHg 49%
16:00 +30°C° 0.5 mm 2 m/S 752 mmHg 60%
17:00 +27°C° 0.5 mm 2 m/S 752 mmHg 72%
18:00 +25°C° 0.5 mm 2 m/S 752 mmHg 84%
19:00 +24°C° 0.4 mm 2 m/S 752 mmHg 86%
20:00 +24°C° 0.4 mm 1 m/S 752 mmHg 88%
21:00 +21°C° 0.4 mm 0 m/S 752 mmHg 91%
22:00 +21°C° 0.4 mm 0 m/S 752 mmHg 92%
23:00 +22°C° 0.4 mm 1 m/S 752 mmHg 93%

28 Juni, Montag

Zeit Temperatur Niederschläge Wind Luftdruck Luftfeuchtigkeit
00:00 +22°C° 0.4 mm 1 m/S 752 mmHg 93%
01:00 +20°C° 0.3 mm 0 m/S 752 mmHg 94%
02:00 +20°C° 0.3 mm 0 m/S 752 mmHg 94%
03:00 +19°C° 0.3 mm 0 m/S 752 mmHg 94%
04:00 +20°C° 0 mm 0 m/S 752 mmHg 93%
05:00 +21°C° 0 mm 0 m/S 752 mmHg 91%
06:00 +22°C° 0 mm 0 m/S 753 mmHg 89%
07:00 +24°C° 0 mm 0 m/S 753 mmHg 80%
08:00 +26°C° 0 mm 0 m/S 753 mmHg 70%
09:00 +28°C° 0 mm 0 m/S 753 mmHg 61%
10:00 +30°C° 0 mm 0 m/S 753 mmHg 55%
11:00 +31°C° 0 mm 0 m/S 752 mmHg 50%
12:00 +33°C° 0 mm 0 m/S 752 mmHg 44%
13:00 +32°C° 0 mm 0 m/S 752 mmHg 48%
14:00 +31°C° 0 mm 0 m/S 752 mmHg 52%
15:00 +30°C° 0 mm 0 m/S 752 mmHg 55%
16:00 +30°C° 1.9 mm 1 m/S 752 mmHg 66%
17:00 +27°C° 1.9 mm 2 m/S 752 mmHg 77%
18:00 +25°C° 1.9 mm 3 m/S 752 mmHg 87%
19:00 +24°C° 2.6 mm 2 m/S 752 mmHg 88%
20:00 +23°C° 2.6 mm 2 m/S 752 mmHg 89%
21:00 +21°C° 2.6 mm 1 m/S 751 mmHg 91%
22:00 +21°C° 0.1 mm 1 m/S 751 mmHg 90%
23:00 +21°C° 0.1 mm 1 m/S 751 mmHg 89%
Mehr zeigen

Wir brauchen deine Erlaubnis

Meteoprog und unser Service Anbieter werden persönliche Daten aufbewahren, so wie Cookies, Geräte Bezeichnung oder ähnliche Technologien von deinem Gerät und Prozess, so wie Persönliche Daten Inhalte und Werbungen, genauso wie social Media und den Verkehr zu analysieren.

  • Aufbewahrung und/oder Zugang zu deiner Geräte Informationen.

    Cookies, Geräte Bezeichnung oder andere Informationen, können aufbewahrt oder Zugang zu deinem Gerät erhalten, für den Grund, der oben angegeben wird.

  • Personalisierte Werbung und Inhalte, Messungen, Einblick in das Publikum und Produkt Entwicklung.

    Werbungen und Inhalte können personalisiert werden, basierend auf ein Profil. Mehr Daten können besser personalisierte Werbungen und Inhalte hinzufügen. Werbung und Inhalte können gezeigt und gemessen werden. Einblicke über das Publikum, welche die Werbung gesehen haben und den Inhalt, können abgeleitet werden. So wie Daten können genutzt werden, um es zu verbessern oder die Benutzer Erfahrung zu verbessern das System und die Software.

Wenn du “Ich stimme zu” klickst, erlaubst du uns, die Cookies zu benutzen die Geräte Bezeichnung, den Web oder ähnliche Technologien zu benutzen. Deine Settings, können in deinem Gerät bei deinem Browser geändert werden.

Für den bestimmten Zweck, berechtigten Interessen beruhen darauf, mehr als auf den Inhalt. Du kannst mehr darüber in unseren Privaten und Cookie Politik lesen.